East Taunton, MA

7:41 AM EST on December 08, 2016 (GMT -0500)
Taunton Municipal

Weather History for KTAN - August, 2014

Change the Weather History Date:

Saturday, August 9, 2014

  Actual Average Record
Temperature  
Mean Temperature 67 °F -  
Max Temperature 84 °F 82 °F 99 °F (1949)
Min Temperature 52 °F 61 °F 46 °F (1955)
Cooling Degree Days 2    
Growing Degree Days 17 (Base 50)    
Moisture  
Dew Point 55 °F    
Average Humidity 75    
Maximum Humidity 97    
Minimum Humidity 42    
Precipitation  
Precipitation 0.00 in - - ()
Sea Level Pressure  
Sea Level Pressure 30.05 in    
Wind  
Wind Speed 1 mph (East)    
Max Wind Speed 9 mph    
Max Gust Speed -    
Visibility 7 miles    
Events Fog    
Averages and records for this station are not official NWS values.
T = Trace of Precipitation, MM = Missing Value Source: NWS Daily Summary

Daily Weather History Graph

Daily Weather History Graph

Search for Another Location

Airport or City:

Trip Planner

Search our weather history database for the weather conditions in past years. The results will help you decide how hot, cold, wet, or windy it might be!

Date:

Astronomy

Aug. 09, 2014 Rise Set
Actual Time 5:45 AM EDT 7:52 PM EDT
Civil Twilight 5:15 AM EDT 8:23 PM EDT
Nautical Twilight 4:37 AM EDT 9:00 PM EDT
Astronomical Twilight 3:56 AM EDT 9:41 PM EDT
Moon 6:51 PM EDT (8/9) 4:22 AM EDT (8/9)
Length of Visible Light 15h 07m
Length of Day
14h 06m
Waxing Gibbous, 98% of the Moon is Illuminated
Aug 9
Waxing Gibbous
Aug 10
Full
Aug 17
Last Quarter
Aug 25
New
Sep 2
First Quarter

Hourly Weather History & Observations

Time (EDT) Temp. Heat Index Dew Point Humidity Pressure Visibility Wind Dir Wind Speed Gust Speed Precip Events Conditions
1:52 AM 55.0 °F - 53.1 °F 93% 30.01 in 9.0 mi Calm Calm - N/A   Clear
2:52 AM 54.0 °F - 53.1 °F 97% 30.01 in 5.0 mi Calm Calm - N/A   Clear
3:52 AM 54.0 °F - 52.0 °F 93% 30.02 in 10.0 mi Calm Calm - N/A   Clear
4:36 AM 53.1 °F - 52.0 °F 96% 30.02 in 2.5 mi Calm Calm - N/A   Clear
4:43 AM 53.1 °F - 52.0 °F 96% 30.03 in 6.0 mi Calm Calm - N/A   Clear
4:52 AM 53.1 °F - 51.1 °F 93% 30.03 in 3.0 mi Calm Calm - N/A   Clear
5:00 AM 53.1 °F - 51.1 °F 93% 30.03 in 1.8 mi Calm Calm - N/A   Clear
5:20 AM 53.1 °F - 51.1 °F 93% 30.03 in 3.0 mi Calm Calm - N/A   Clear
5:34 AM 52.0 °F - 51.1 °F 97% 30.04 in 1.8 mi Calm Calm - N/A   Clear
5:42 AM 53.1 °F - 51.1 °F 93% 30.04 in 1.0 mi Calm Calm - N/A   Clear
5:52 AM 52.0 °F - 51.1 °F 97% 30.04 in 0.5 mi Calm Calm - N/A Fog Fog
5:59 AM 52.0 °F - 51.1 °F 97% 30.05 in 1.5 mi Calm Calm - N/A   Clear
6:02 AM 52.0 °F - 51.1 °F 97% 30.05 in 3.0 mi Calm Calm - N/A   Clear
6:52 AM 57.9 °F - 55.9 °F 93% 30.05 in 10.0 mi Calm Calm - N/A   Clear
7:52 AM 66.9 °F - 57.9 °F 73% 30.06 in 10.0 mi West 3.5 mph - N/A   Clear
8:52 AM 73.0 °F - 57.9 °F 59% 30.06 in 10.0 mi NNW 6.9 mph - N/A   Clear
9:52 AM 77.0 °F - 57.9 °F 52% 30.06 in 10.0 mi NNW 4.6 mph - N/A   Clear
10:52 AM 80.1 °F 80.6 °F 57.9 °F 47% 30.07 in 10.0 mi Variable 3.5 mph - N/A   Clear
11:52 AM 81.0 °F 81.3 °F 59.0 °F 47% 30.06 in 10.0 mi North 6.9 mph - N/A   Clear
12:52 PM 79.0 °F - 57.9 °F 48% 30.06 in 10.0 mi NNE 4.6 mph - N/A   Scattered Clouds
1:52 PM 82.0 °F 81.7 °F 57.0 °F 42% 30.05 in 10.0 mi Variable 4.6 mph - N/A   Scattered Clouds
2:52 PM 82.0 °F 82.0 °F 57.9 °F 44% 30.04 in 10.0 mi Variable 6.9 mph - N/A   Scattered Clouds
3:52 PM 81.0 °F 81.1 °F 57.9 °F 45% 30.04 in 10.0 mi East 3.5 mph - N/A   Partly Cloudy
4:52 PM 82.0 °F 81.7 °F 57.0 °F 42% 30.04 in 10.0 mi ESE 5.8 mph - N/A   Partly Cloudy
5:52 PM 80.1 °F 80.2 °F 55.9 °F 43% 30.05 in 10.0 mi ESE 9.2 mph - N/A   Partly Cloudy
6:52 PM 75.9 °F - 57.9 °F 54% 30.06 in 10.0 mi SSW 3.5 mph - N/A   Clear
7:52 PM 71.1 °F - 62.1 °F 73% 30.07 in 10.0 mi South 3.5 mph - N/A   Mostly Cloudy
8:52 PM 66.9 °F - 61.0 °F 81% 30.08 in 10.0 mi South 3.5 mph - N/A   Clear
9:52 PM 63.0 °F - 60.1 °F 90% 30.09 in 10.0 mi Calm Calm - N/A   Clear